Terug naar catalogus

DELTA 1 DEB

ActiefSSO
NORAD 7126·DEBRIS·🇺🇸 United States

Gelanceerd Nov 6, 1973 vanaf Vandenberg Space Force Base

Loading…

Volgende Passages (komende 24 uur)

TLE

VersSource: Space-Track

Epoch: Sep 14, 2026, 10:05 UTC

1 07126U 73086CQ  26257.42070485  .00000086  00000-0  83150-3 0  9996
2 07126 102.0012 232.1882 0283188 102.4206  48.6526 12.41136845385456

Volg DELTA 1 DEB in realtime met AllMySat

Download on the App Store